[[{"header":{"parameterUnit":"m.s-1","parameterCategory":1,"la1":30.2991,"la2":30.254,"lo1":-89.0895,"lo2":-89.0444,"dy":0.0017,"dx":0.0017,"nx":28,"ny":28,"refTime":"2024-08-21T09:00:00:Z","depth":0,"parameterNumber":2,"parameterNumberName":"U-component_of_WINDS"},"data":[0,0,0,0,0,0,0,0,0,0,0,0,0,0,0,0,0,0,0,0,0,0,0,0,0,0,0,0,0,0,0,0,0,0,0,0,0,0,0,0,0,0,0,0,0,0,0,0,0,0,0,0,0,0,0,0,0,0,-3.2592,-3.2592,0,-3.2612,-3.2612,-3.2613,-3.2545,-3.2543,-3.2541,-3.2539,-3.256,-3.2563,-3.2565,0,0,0,0,0,0,0,0,0,0,0,0,0,-3.2493,-3.2495,-3.2592,-3.2592,-3.2592,-3.2612,-3.2612,-3.2613,-3.2545,-3.2543,-3.254,-3.2538,-3.256,-3.2563,-3.2566,0,0,0,0,0,0,0,0,0,0,0,0,0,-3.2527,-3.2496,-3.2592,-3.2561,-3.2559,-3.2612,-3.2612,-3.2613,-3.2546,-3.2543,-3.254,-3.2537,-3.2559,-3.2562,-3.2566,-3.2651,0,0,-3.2577,-3.2579,0,0,0,0,0,0,0,0,-3.2525,-3.2531,-3.2565,-3.2563,-3.2561,-3.2573,-3.2586,-3.2626,-3.2546,-3.2551,-3.2539,-3.2535,-3.2567,-3.257,-3.2581,-3.2652,-3.2653,-3.2578,-3.258,-3.2582,-3.2583,0,0,0,0,0,0,0,-3.2523,-3.253,-3.26,-3.2566,-3.2563,-3.2546,-3.2547,-3.2593,-3.2576,-3.255,-3.2545,-3.2548,-3.2565,-3.2577,-3.2581,-3.2653,-3.2578,-3.2581,-3.2583,-3.2585,-3.279,-3.2793,0,0,0,0,0,0,-3.2525,-3.2528,-3.2599,-3.2601,-3.2535,-3.255,-3.2552,-3.2572,-3.2575,-3.2573,-3.2551,-3.2545,-3.2572,-3.2576,-3.2581,-3.2677,-3.2582,-3.2585,-3.2587,-3.2787,-3.2791,-3.2794,0,0,0,0,0,0,-3.2523,-3.2532,-3.2598,-3.2563,-3.257,-3.2555,-3.2578,-3.2574,-3.2586,-3.2576,-3.2573,-3.2566,-3.257,-3.2576,-3.2633,-3.2677,-3.2587,-3.259,-3.2783,-3.2788,-3.2793,-3.2872,0,0,0,0,0,0,-3.252,-3.2532,-3.2564,-3.2564,-3.2572,-3.2651,-3.2581,-3.2577,-3.2592,-3.2585,-3.2589,-3.2587,-3.2568,-3.2628,-3.2637,-3.2681,-3.2593,-3.2779,-3.2785,-3.2791,-3.2866,-3.2879,-3.2891,0,0,0,0,0,-3.2517,-3.2587,-3.2566,-3.2575,-3.2613,-3.2653,-3.2658,-3.2634,-3.2596,-3.2628,-3.2621,-3.2587,-3.2671,-3.2634,-3.2644,-3.269,-3.2776,-3.2784,-3.2791,-3.286,-3.2877,-3.2891,0,0,0,0,0,0,-3.2594,-3.2587,-3.2563,-3.2635,-3.2645,-3.2642,-3.2682,-3.2653,-3.2675,-3.2667,-3.2636,-3.2638,-3.27,-3.2701,-3.2659,-3.277,-3.2717,-3.2727,-3.2767,-3.2782,-3.2795,-3.2792,-3.2596,0,0,0,0,0,-3.2619,-3.2653,-3.2644,-3.2709,-3.2715,-3.2697,-3.2714,-3.2695,-3.2704,-3.2708,-3.2706,-3.2716,-3.2744,-3.2764,-3.279,-3.2866,-3.2864,-3.2902,-3.2915,-3.2925,-3.2933,-3.297,-3.2986,-3.2818,-3.2818,-3.2818,0,0,-3.2672,-3.2672,-3.2695,-3.2724,-3.2729,-3.2764,-3.2702,-3.2742,-3.2766,-3.2714,-3.2767,-3.2766,-3.2775,-3.2841,-3.287,-3.2844,-3.2979,-3.2934,-3.2943,-3.2945,-3.2979,-3.2995,-3.3009,-3.2823,-3.2822,-3.2821,0,0,-3.2784,-3.2789,-3.2841,-3.2847,-3.2855,-3.2843,-3.2855,-3.2856,-3.2852,-3.2904,-3.2865,-3.2894,-3.2945,-3.2951,-3.2962,-3.3074,-3.3042,-3.3084,-3.3149,-3.3186,-3.3199,-3.321,-3.3247,-3.3261,-3.3092,-3.3092,-3.3092,0,-3.2849,-3.2899,-3.2872,-3.2913,-3.2926,-3.2879,-3.293,-3.2938,-3.2955,-3.2964,-3.2934,-3.2994,-3.2997,-3.3063,-3.309,-3.3101,-3.3112,-3.3082,-3.3199,-3.321,-3.3221,-3.3256,-3.327,-3.3097,-3.3096,-3.3096,-3.3095,0,-3.2976,-3.3011,-3.3052,-3.3067,-3.3085,-3.3132,-3.311,-3.3131,-3.311,-3.31,-3.3152,-3.3154,-3.3178,-3.3193,-3.3173,-3.3255,-3.3237,-3.3204,-3.315,-3.3242,-3.3274,-3.3287,-3.3104,-3.3102,-3.31,-3.3099,0,0,-3.3138,-3.3135,-3.3151,-3.3155,-3.316,-3.3186,-3.323,-3.3252,-3.3269,-3.3282,-3.3316,-3.3359,-3.3326,-3.3338,-3.3319,-3.3351,-3.3436,-3.3313,-3.3313,-3.3333,-3.3522,-3.3546,-3.3562,-3.3416,-3.3418,-3.342,-3.352,0,-3.3247,-3.332,-3.3295,-3.3369,-3.3399,-3.3354,-3.3391,-3.3398,-3.339,-3.3414,-3.3405,-3.3434,-3.3391,-3.3397,-3.3428,-3.3419,-3.3473,-3.3412,-3.3445,-3.3447,-3.3442,-3.3579,-3.3605,-3.3699,-3.3533,-3.3535,-3.3537,0,-3.3383,-3.3398,-3.3475,-3.347,-3.3482,-3.3517,-3.3533,-3.3557,-3.3563,-3.3554,-3.3566,-3.3539,-3.358,-3.3527,-3.3582,-3.3541,-3.3553,-3.3551,-3.3554,-3.3555,-3.3496,-3.3581,-3.3729,-3.3743,-3.3557,-3.3556,-3.3554,0,-3.349,-3.353,-3.358,-3.3586,-3.3583,-3.3607,-3.3608,-3.361,-3.3623,-3.3638,-3.3646,-3.3666,-3.3677,-3.3692,-3.3671,-3.3635,-3.3728,-3.3674,-3.372,-3.3721,-3.3741,-3.3739,-3.3891,-3.3753,-3.3753,-3.3753,-3.3752,0,-3.3612,-3.366,-3.3627,-3.3658,-3.371,-3.368,-3.3732,-3.3727,-3.3729,-3.3757,-3.372,-3.3747,-3.3718,-3.3742,-3.3726,-3.3772,-3.3778,-3.3771,-3.3766,-3.3773,-3.3774,-3.3779,-3.3771,-3.3756,-3.3755,-3.3755,-3.3754,0,-3.374,-3.3721,-3.3771,-3.3763,-3.3762,-3.38,-3.3793,-3.382,-3.3808,-3.3844,-3.3851,-3.3833,-3.3859,-3.3839,-3.3866,-3.3855,-3.3915,-3.3902,-3.3912,-3.3908,-3.3954,-3.3949,-3.4112,-3.4131,-3.3984,-3.3985,-3.3987,0,-3.3818,-3.3853,-3.3848,-3.3863,-3.3865,-3.3891,-3.3903,-3.3876,-3.389,-3.3897,-3.3923,-3.3946,-3.3963,-3.4007,-3.3996,-3.4015,-3.4,-3.4056,-3.4003,-3.4008,-3.3998,-3.3995,-3.3997,-3.4066,-3.4068,-3.407,-3.4071,0,-3.3958,-3.3946,-3.3965,-3.398,-3.3996,-3.4008,-3.4016,-3.4031,-3.4002,-3.402,-3.4046,-3.4058,-3.4084,-3.4106,-3.4121,-3.4121,-3.4091,-3.4088,-3.4099,-3.4105,-3.4109,-3.4105,-3.3939,-3.4084,-3.4082,-3.4082,-3.4081,-3.408,-3.4061,-3.4089,-3.4088,-3.411,-3.4113,-3.4121,-3.4145,-3.4135,-3.4155,-3.4172,-3.4155,-3.4185,-3.4187,-3.4203,-3.4207,-3.4229,-3.4206,-3.4223,-3.4227,-3.4231,-3.4236,-3.4107,-3.4232,-3.4232,-3.4232,-3.4231,-3.4231,0,-3.4197,-3.4193,-3.4213,-3.4224,-3.4241,-3.421,-3.4217,-3.4233,-3.4259,-3.4263,-3.4279,-3.4307,-3.4328,-3.4318,-3.4335,-3.4355,-3.4342,-3.4361,-3.4358,-3.4357,-3.4257,-3.4244,-3.4371,-3.4371,-3.4371,-3.4371,-3.4371,-3.4371,-3.4269,-3.4312,-3.43,-3.4343,-3.434,-3.4367,-3.4373,-3.438,-3.4382,-3.4414,-3.443,-3.4423,-3.442,-3.4437,-3.4454,-3.4451,-3.4458,-3.4481,-3.4473,-3.4379,-3.4365,-3.4352,-3.4339,-3.4484,-3.4484,-3.4571,-3.4571,-3.4572]},{"header":{"parameterUnit":"m.s-1","parameterCategory":1,"la1":30.2991,"la2":30.254,"lo1":-89.0895,"lo2":-89.0444,"dy":0.0017,"dx":0.0017,"nx":28,"ny":28,"refTime":"2024-08-21T09:00:00:Z","depth":0,"parameterNumber":3,"parameterNumberName":"V-component_of_WINDS"},"data":[0,0,0,0,0,0,0,0,0,0,0,0,0,0,0,0,0,0,0,0,0,0,0,0,0,0,0,0,0,0,0,0,0,0,0,0,0,0,0,0,0,0,0,0,0,0,0,0,0,0,0,0,0,0,0,0,0,0,-1.55,-1.55,0,-1.5556,-1.5557,-1.5557,-1.5539,-1.5538,-1.5537,-1.5536,-1.5589,-1.5592,-1.5594,0,0,0,0,0,0,0,0,0,0,0,0,0,-1.537,-1.5373,-1.55,-1.55,-1.5501,-1.5556,-1.5557,-1.5558,-1.554,-1.5538,-1.5537,-1.5535,-1.5588,-1.5591,-1.5594,0,0,0,0,0,0,0,0,0,0,0,0,0,-1.5426,-1.5373,-1.5499,-1.5499,-1.5499,-1.5556,-1.5557,-1.5558,-1.554,-1.5538,-1.5536,-1.5535,-1.5587,-1.5591,-1.5595,-1.5654,0,0,-1.5606,-1.5608,0,0,0,0,0,0,0,0,-1.5423,-1.5431,-1.5498,-1.5499,-1.55,-1.5539,-1.5531,-1.559,-1.554,-1.5524,-1.5536,-1.5534,-1.5574,-1.5578,-1.5593,-1.5657,-1.5659,-1.5607,-1.5609,-1.5611,-1.5612,0,0,0,0,0,0,0,-1.5419,-1.5428,-1.5522,-1.5499,-1.55,-1.5494,-1.55,-1.5542,-1.5558,-1.5526,-1.5524,-1.5532,-1.5574,-1.5589,-1.5594,-1.566,-1.5607,-1.561,-1.5612,-1.5614,-1.5772,-1.5774,0,0,0,0,0,0,-1.5416,-1.5425,-1.552,-1.5524,-1.5456,-1.5497,-1.5504,-1.5528,-1.5558,-1.5561,-1.5533,-1.5531,-1.5584,-1.559,-1.5596,-1.5666,-1.5611,-1.5614,-1.5616,-1.577,-1.5773,-1.5775,0,0,0,0,0,0,-1.5413,-1.5424,-1.5518,-1.5474,-1.5486,-1.5502,-1.5529,-1.553,-1.5546,-1.5563,-1.5566,-1.5546,-1.5582,-1.559,-1.5639,-1.5667,-1.5616,-1.5619,-1.5768,-1.5771,-1.5774,-1.5807,0,0,0,0,0,0,-1.5409,-1.5424,-1.5448,-1.5475,-1.5488,-1.5562,-1.553,-1.5533,-1.5553,-1.555,-1.5577,-1.5579,-1.5582,-1.5634,-1.5643,-1.5672,-1.5622,-1.5765,-1.5769,-1.5773,-1.5803,-1.581,-1.5816,0,0,0,0,0,-1.5405,-1.5454,-1.5449,-1.5461,-1.5519,-1.5564,-1.5571,-1.5575,-1.5555,-1.5579,-1.5589,-1.5578,-1.5663,-1.5639,-1.5649,-1.5679,-1.5764,-1.5768,-1.5772,-1.58,-1.5809,-1.5816,0,0,0,0,0,0,-1.5429,-1.5458,-1.5453,-1.5513,-1.5536,-1.5561,-1.5591,-1.5584,-1.5612,-1.5609,-1.561,-1.5616,-1.5666,-1.5677,-1.5651,-1.5737,-1.571,-1.5717,-1.5728,-1.5736,-1.5743,-1.5738,-1.5626,0,0,0,0,0,-1.5441,-1.5477,-1.55,-1.5551,-1.5563,-1.5575,-1.5595,-1.5595,-1.5619,-1.5628,-1.5643,-1.5665,-1.5696,-1.5717,-1.5747,-1.5805,-1.5809,-1.583,-1.5837,-1.5842,-1.5847,-1.5877,-1.5886,-1.5789,-1.5789,-1.5789,0,0,-1.5467,-1.5487,-1.551,-1.5556,-1.5575,-1.561,-1.5583,-1.5622,-1.5648,-1.5634,-1.5681,-1.5692,-1.5717,-1.577,-1.5794,-1.5781,-1.5875,-1.5848,-1.5852,-1.5854,-1.5882,-1.5891,-1.5899,-1.5792,-1.5791,-1.5791,0,0,-1.5532,-1.5552,-1.5596,-1.5614,-1.5643,-1.565,-1.566,-1.5686,-1.5693,-1.5741,-1.5731,-1.576,-1.5814,-1.5832,-1.5848,-1.5917,-1.5907,-1.5927,-1.5961,-1.599,-1.5997,-1.6004,-1.6027,-1.6036,-1.5932,-1.5932,-1.5932,0,-1.556,-1.5615,-1.5618,-1.5658,-1.5677,-1.5667,-1.571,-1.5728,-1.5763,-1.5776,-1.5761,-1.5828,-1.5844,-1.5901,-1.5917,-1.5931,-1.5941,-1.5923,-1.5996,-1.6003,-1.6009,-1.6031,-1.604,-1.5934,-1.5934,-1.5934,-1.5934,0,-1.5647,-1.5684,-1.5716,-1.5752,-1.5775,-1.5816,-1.5824,-1.5846,-1.5844,-1.5852,-1.5899,-1.5918,-1.595,-1.5964,-1.5962,-1.6019,-1.601,-1.5996,-1.5969,-1.6021,-1.6041,-1.605,-1.5937,-1.5937,-1.5936,-1.5935,0,0,-1.5729,-1.5766,-1.5777,-1.5793,-1.5822,-1.585,-1.5889,-1.5923,-1.5941,-1.5965,-1.5997,-1.6042,-1.6029,-1.6047,-1.6047,-1.6072,-1.6123,-1.6054,-1.6055,-1.6065,-1.6185,-1.6195,-1.6205,-1.6117,-1.6119,-1.612,-1.6183,0,-1.5795,-1.5866,-1.587,-1.5933,-1.5967,-1.5957,-1.599,-1.6011,-1.6019,-1.6047,-1.6055,-1.6087,-1.6068,-1.6078,-1.6103,-1.6112,-1.6147,-1.6108,-1.6145,-1.6146,-1.6138,-1.6216,-1.6227,-1.6286,-1.6191,-1.6193,-1.6194,0,-1.5882,-1.591,-1.5978,-1.6001,-1.6015,-1.6045,-1.6075,-1.6102,-1.6124,-1.6128,-1.6148,-1.6144,-1.6181,-1.6153,-1.6204,-1.6177,-1.6192,-1.6199,-1.6201,-1.6204,-1.6172,-1.622,-1.6305,-1.6313,-1.6207,-1.6206,-1.6205,0,-1.5934,-1.5988,-1.6035,-1.6048,-1.6077,-1.6098,-1.6111,-1.6132,-1.615,-1.6176,-1.6187,-1.6216,-1.6232,-1.6253,-1.6256,-1.6236,-1.6306,-1.6279,-1.6309,-1.6309,-1.6324,-1.6323,-1.6411,-1.6335,-1.6335,-1.6335,-1.6335,0,-1.6007,-1.6048,-1.6058,-1.6087,-1.6131,-1.6134,-1.6178,-1.6188,-1.6206,-1.6235,-1.6228,-1.6255,-1.6257,-1.6284,-1.6286,-1.6327,-1.6334,-1.6337,-1.6337,-1.6337,-1.6337,-1.6346,-1.6342,-1.6337,-1.6337,-1.6336,-1.6336,0,-1.6071,-1.608,-1.613,-1.6153,-1.616,-1.6192,-1.621,-1.6236,-1.6243,-1.628,-1.6288,-1.6299,-1.633,-1.6335,-1.6372,-1.6373,-1.6421,-1.6418,-1.6414,-1.6413,-1.6442,-1.6439,-1.6539,-1.6552,-1.6469,-1.647,-1.6471,0,-1.6117,-1.6148,-1.6175,-1.6194,-1.6208,-1.624,-1.6259,-1.6262,-1.6282,-1.6309,-1.6331,-1.6362,-1.6387,-1.6437,-1.6446,-1.6474,-1.647,-1.6503,-1.6474,-1.6472,-1.6468,-1.6466,-1.6468,-1.6508,-1.6509,-1.651,-1.651,0,-1.6196,-1.6199,-1.6228,-1.6258,-1.6282,-1.6305,-1.6328,-1.6343,-1.6349,-1.6371,-1.6404,-1.6423,-1.646,-1.649,-1.6517,-1.6528,-1.6519,-1.652,-1.6528,-1.6528,-1.6524,-1.6525,-1.6428,-1.6517,-1.6516,-1.6516,-1.6516,-1.6515,-1.6252,-1.6279,-1.6301,-1.6333,-1.635,-1.6371,-1.6396,-1.6406,-1.6434,-1.6465,-1.6465,-1.65,-1.6519,-1.6555,-1.6567,-1.6593,-1.6582,-1.6594,-1.6597,-1.66,-1.6602,-1.6521,-1.6598,-1.6598,-1.6598,-1.6598,-1.6598,0,-1.6329,-1.6343,-1.6373,-1.6404,-1.6429,-1.642,-1.6444,-1.6464,-1.6496,-1.6515,-1.654,-1.6576,-1.6604,-1.6616,-1.6644,-1.6662,-1.6659,-1.6669,-1.6667,-1.667,-1.6611,-1.6601,-1.6671,-1.6671,-1.6671,-1.6671,-1.6671,-1.6671,-1.6373,-1.6417,-1.6422,-1.6473,-1.6486,-1.6522,-1.6536,-1.6554,-1.6569,-1.661,-1.6634,-1.6642,-1.6658,-1.6686,-1.6712,-1.6714,-1.6724,-1.6736,-1.6736,-1.6681,-1.6674,-1.6667,-1.6657,-1.6738,-1.6738,-1.6792,-1.6793,-1.6793]}]]